Total_Precipitation_Accumulation
0.00 0.00 0.00 0.00 0.00 0.00 0.00 0.00 0.00 0.00 0.00 0.00 0.00 0.01 0.01 0.02 0.03 0.04 0.10 0.24 0.41 0.56 0.78 0.93 1.02 1.00 1.15 1.23 1.24 1.22 1.38 1.67 1.96 1.89 1.59 1.48 1.35 1.27 1.18 1.07 1.04 1.10 1.15 1.31
0.00 0.00 0.00 0.00 0.00 0.00 0.00 0.00 0.00 0.00 0.00 0.00 0.00 0.00 0.02 0.04 0.06 0.10 0.16 0.26 0.44 0.66 0.95 1.19 1.27 1.28 1.35 1.58 1.83 1.91 2.00 2.33 2.47 2.29 2.15 2.05 2.01 1.78 1.72 1.63 1.48 1.31 1.24 1.37
0.00 0.00 0.00 0.00 0.00 0.00 0.00 0.00 0.00 0.00 0.00 0.00 0.00 0.01 0.03 0.10 0.18 0.28 0.34 0.40 0.48 0.61 0.90 1.10 1.10 1.15 1.24 1.38 1.57 1.81 2.17 2.54 2.63 2.59 2.55 2.44 2.40 2.08 1.98 1.87 1.71 1.52 1.39 1.39
0.00 0.00 0.00 0.00 0.00 0.00 0.00 0.00 0.00 0.00 0.00 0.00 0.00 0.01 0.04 0.12 0.26 0.36 0.39 0.43 0.53 0.81 1.02 0.92 0.84 0.95 1.05 1.04 1.27 1.53 1.88 2.21 2.43 2.54 2.50 2.50 2.43 2.27 2.22 2.08 1.79 1.56 1.42 1.42
0.00 0.00 0.00 0.00 0.00 0.00 0.00 0.00 0.00 0.00 0.00 0.00 0.00 0.01 0.03 0.11 0.22 0.33 0.42 0.51 0.68 0.89 0.87 0.77 0.80 0.94 0.98 1.02 1.24 1.43 1.65 1.93 2.17 2.27 2.25 2.22 2.10 2.02 1.96 1.82 1.60 1.45 1.37 1.32
0.00 0.01 0.01 0.00 0.00 0.00 0.00 0.00 0.00 0.00 0.02 0.04 0.05 0.05 0.09 0.22 0.32 0.34 0.42 0.45 0.56 0.73 0.76 0.81 0.88 0.95 1.02 1.21 1.39 1.58 1.74 1.96 2.08 1.94 1.80 1.78 1.77 1.78 1.68 1.54 1.41 1.29 1.20 1.13
0.02 0.02 0.02 0.01 0.01 0.01 0.01 0.02 0.06 0.07 0.12 0.13 0.12 0.11 0.23 0.40 0.40 0.36 0.39 0.43 0.51 0.61 0.65 0.71 0.90 1.12 1.18 1.15 1.17 1.38 1.64 1.92 1.95 1.78 1.61 1.54 1.51 1.54 1.53 1.44 1.35 1.28 1.17 1.08
0.03 0.04 0.04 0.04 0.05 0.05 0.04 0.07 0.17 0.16 0.09 0.08 0.10 0.16 0.38 0.46 0.41 0.40 0.44 0.46 0.44 0.40 0.32 0.33 0.42 0.55 0.54 0.53 0.55 0.61 0.74 0.96 1.07 1.06 1.04 1.04 1.08 1.15 1.21 1.29 1.25 1.24 1.19 1.07
0.02 0.02 0.02 0.06 0.10 0.11 0.16 0.16 0.13 0.24 0.21 0.19 0.12 0.18 0.34 0.41 0.43 0.41 0.42 0.40 0.36 0.29 0.23 0.23 0.26 0.30 0.35 0.36 0.40 0.48 0.56 0.63 0.68 0.68 0.67 0.69 0.76 0.86 0.93 1.00 1.04 1.07 1.07 1.01
0.02 0.01 0.01 0.03 0.07 0.09 0.12 0.17 0.30 0.46 0.44 0.32 0.18 0.29 0.51 0.69 0.69 0.60 0.55 0.51 0.41 0.32 0.27 0.26 0.27 0.31 0.39 0.48 0.56 0.62 0.62 0.57 0.53 0.52 0.53 0.52 0.58 0.64 0.70 0.73 0.76 0.77 0.79 0.82
0.01 0.01 0.03 0.09 0.12 0.12 0.13 0.18 0.33 0.45 0.46 0.45 0.39 0.42 0.41 0.53 0.66 0.79 0.81 0.68 0.47 0.35 0.29 0.28 0.27 0.31 0.36 0.45 0.52 0.59 0.60 0.57 0.54 0.52 0.52 0.52 0.51 0.51 0.54 0.59 0.60 0.63 0.64 0.66
0.01 0.02 0.03 0.06 0.06 0.05 0.11 0.18 0.31 0.46 0.50 0.51 0.52 0.51 0.30 0.34 0.47 0.58 0.58 0.46 0.33 0.27 0.25 0.24 0.23 0.24 0.28 0.34 0.42 0.45 0.48 0.52 0.52 0.47 0.48 0.50 0.47 0.44 0.45 0.47 0.48 0.50 0.53 0.56
0.01 0.03 0.02 0.04 0.07 0.09 0.13 0.13 0.20 0.30 0.39 0.43 0.53 0.58 0.35 0.36 0.43 0.46 0.45 0.39 0.30 0.27 0.26 0.24 0.23 0.24 0.26 0.32 0.39 0.43 0.44 0.48 0.50 0.47 0.47 0.44 0.46 0.46 0.43 0.37 0.36 0.36 0.40 0.46
0.00 0.01 0.02 0.03 0.04 0.04 0.08 0.11 0.14 0.22 0.34 0.31 0.29 0.39 0.39 0.39 0.42 0.42 0.39 0.32 0.26 0.23 0.23 0.22 0.24 0.26 0.27 0.27 0.29 0.34 0.42 0.50 0.46 0.43 0.42 0.40 0.38 0.38 0.40 0.38 0.34 0.32 0.33 0.37
0.00 0.00 0.01 0.02 0.02 0.04 0.07 0.10 0.12 0.16 0.18 0.26 0.24 0.34 0.41 0.38 0.34 0.31 0.30 0.27 0.22 0.20 0.18 0.17 0.17 0.18 0.19 0.22 0.25 0.29 0.30 0.38 0.43 0.45 0.41 0.40 0.39 0.35 0.33 0.31 0.28 0.27 0.25 0.25
0.00 0.00 0.01 0.06 0.10 0.10 0.13 0.15 0.14 0.14 0.14 0.17 0.21 0.30 0.28 0.25 0.25 0.26 0.26 0.24 0.22 0.17 0.14 0.12 0.11 0.11 0.12 0.14 0.17 0.21 0.22 0.27 0.33 0.34 0.33 0.36 0.36 0.34 0.33 0.28 0.23 0.21 0.20 0.21
0.01 0.01 0.01 0.06 0.16 0.17 0.23 0.16 0.14 0.16 0.15 0.23 0.37 0.39 0.29 0.27 0.24 0.21 0.18 0.16 0.12 0.09 0.08 0.07 0.06 0.06 0.07 0.07 0.09 0.15 0.19 0.20 0.23 0.26 0.28 0.30 0.33 0.36 0.34 0.25 0.21 0.18 0.17 0.18
0.01 0.01 0.02 0.06 0.15 0.24 0.20 0.06 0.05 0.08 0.08 0.10 0.17 0.18 0.18 0.20 0.17 0.13 0.10 0.08 0.06 0.04 0.03 0.03 0.02 0.02 0.02 0.03 0.06 0.12 0.19 0.22 0.24 0.29 0.33 0.33 0.32 0.35 0.34 0.28 0.23 0.21 0.19 0.19
0.01 0.00 0.02 0.04 0.08 0.17 0.08 0.04 0.05 0.09 0.10 0.05 0.08 0.09 0.08 0.07 0.07 0.08 0.04 0.02 0.01 0.01 0.01 0.01 0.01 0.01 0.02 0.04 0.08 0.14 0.18 0.24 0.29 0.34 0.37 0.36 0.35 0.35 0.35 0.33 0.31 0.30 0.29 0.24
0.00 0.00 0.01 0.02 0.06 0.13 0.08 0.04 0.06 0.08 0.20 0.11 0.07 0.05 0.03 0.02 0.06 0.08 0.02 0.00 0.00 0.00 0.00 0.01 0.01 0.03 0.06 0.08 0.12 0.20 0.23 0.29 0.32 0.32 0.32 0.30 0.32 0.36 0.38 0.38 0.39 0.38 0.37 0.30
0.01 0.01 0.01 0.02 0.06 0.07 0.02 0.03 0.05 0.15 0.24 0.05 0.01 0.01 0.01 0.02 0.05 0.03 0.01 0.00 0.00 0.00 0.01 0.02 0.03 0.07 0.13 0.12 0.17 0.22 0.24 0.28 0.29 0.31 0.31 0.32 0.32 0.36 0.39 0.45 0.48 0.48 0.44 0.40
0.01 0.01 0.02 0.03 0.08 0.10 0.01 0.01 0.03 0.05 0.04 0.02 0.02 0.02 0.02 0.01 0.01 0.01 0.01 0.01 0.01 0.02 0.02 0.03 0.06 0.11 0.17 0.18 0.23 0.26 0.27 0.28 0.31 0.35 0.34 0.34 0.37 0.30 0.30 0.45 0.52 0.55 0.55 0.49
0.00 0.01 0.02 0.04 0.06 0.03 0.01 0.01 0.02 0.02 0.03 0.03 0.02 0.02 0.01 0.01 0.01 0.01 0.01 0.02 0.02 0.03 0.04 0.06 0.09 0.14 0.16 0.21 0.32 0.40 0.39 0.38 0.41 0.45 0.46 0.46 0.44 0.42 0.44 0.50 0.54 0.56 0.57 0.55
0.00 0.01 0.02 0.03 0.02 0.01 0.02 0.02 0.02 0.02 0.02 0.01 0.01 0.01 0.01 0.01 0.02 0.02 0.03 0.02 0.03 0.03 0.04 0.06 0.10 0.15 0.20 0.25 0.35 0.44 0.46 0.46 0.49 0.53 0.54 0.57 0.59 0.56 0.55 0.62 0.64 0.62 0.61 0.61
0.00 0.01 0.03 0.06 0.04 0.02 0.03 0.02 0.01 0.00 0.00 0.00 0.01 0.01 0.01 0.02 0.02 0.02 0.02 0.02 0.03 0.03 0.05 0.07 0.12 0.19 0.23 0.27 0.34 0.39 0.45 0.51 0.58 0.58 0.55 0.58 0.65 0.70 0.68 0.67 0.68 0.66 0.68 0.64
0.01 0.03 0.05 0.07 0.06 0.05 0.04 0.02 0.01 0.01 0.01 0.01 0.01 0.01 0.01 0.02 0.02 0.02 0.02 0.03 0.04 0.06 0.08 0.12 0.16 0.21 0.25 0.28 0.35 0.42 0.51 0.58 0.67 0.65 0.61 0.60 0.62 0.66 0.66 0.66 0.54 0.48 0.49 0.45